STARLINK-11736, 64317

Orbit data source: Space-Track

STARLINK-11736, 64317 is a payload satellite owned by SpaceX/Seattle (US) in LEO that was launched on Tue, 10 Jun 2025 UTC via an FALCON 9 launch vehicle from the Air Force Eastern Test Range (AFETR). Payload-class satellites include a variety of spacecraft equipped with specific instruments for various scientific and technological missions. These include communications satellites like Starlink; space stations such as the ISS; scientific satellites like the Hubble; Earth observation satellites from companies like Planet Labs, Umbra, and HawkEye 360; GPS; miniature CubeSats for education and research; and military/defense satellites.

Loading next visibility...
Identifier
64317, 2025-124A
Orbit
LEO
Country
Flag of USUS
Related business
Manufacturer
SpaceX/Seattle
Mission
Operational Commercial Communications
Bus & Motor
STARLINK V2MD, Unknown motor
Mass
960 kg wet, ~910 kg dry
Launch date (UTC)
2025-06-10 (9 months ago)
Launch vehicle
FALCON 9
Launch site
Air Force Eastern Test Range (AFETR)
Object type
Payload
Rocket body
Debris
Shape & HBR
Box + 2 Pan, 18.1 m
Radar Cross Section
36.964 m², Large (>1 m²)

Expand to show TLE details & history
Last TLE update: 9 hours ago

TLE from 9 hours ago
0 STARLINK-11736
1 64317U 25124A   26074.49195719  .00287282  00000-0  21538-2 0  9999
2 64317  42.9985 354.5359 0001266 293.9004  66.1731 15.70973273 43742
Epoch: 2026-03-15T11:48Z
TLE epoch observation values (Epoch: 2026-03-15T11:48:25.101Z)
Latitude
-0°
Longitude
4.3333°
Altitude
355.541 km
Speed
7.698 km/s
True Right ascension
23h 38m 08s
True Declination
0° 00' 00"
Sunlit
Object was in daylight at epoch
Visualization orbit readout
Latitude
Unknown
Longitude
Unknown
Altitude
Unknown
Speed
Unknown
Apparent Right ascension
Unknown
Apparent Declination
Unknown
Sunlit
N/A
Visualization observer readout
Local Sidereal Time
01:13:44
Azimuth
Unknown
Elevation
Unknown
Doppler factor
Unknown
Orbital elements
Apogee altitude
358.949 km
Perigee altitude
357.243 km
Semi-major axis
6,736.233 km
Eccentricity
0.00013
Inclination
42.9985°
RAAN
354.5359°
Arg. of periapsis
293.9004°
True anomaly
66.18637°
Mean anomaly
66.1731°
Eccentric anomaly
66.17974°
Mean motion
3.9257 °/min
Orbital period
91.7 mins
BSTAR
0.0021538
Loading maneuver chart data...
Computing Atmospheric mass density...
Loading historical data...
Loading historical data...
Loading historical data...
Loading historical data...
Loading historical data...
Loading historical data...
Loading historical data...

Documentation

Showing up to 5 results
|